EHI
0 0 0 0 0 0 0 0 0 0 0 0 0 1 2 1 0 1 2 3 3 3 3 4 5 6 10 17 25 30 32 32 32 32 29 26 23 20 19 20 22 23 22 20
0 0 0 0 0 0 0 0 0 0 0 0 0 1 2 1 0 1 2 3 4 5 5 5 6 7 10 17 25 29 30 29 30 32 31 27 24 21 20 21 22 23 21 20
0 0 0 0 0 0 0 0 0 0 0 0 0 1 2 2 1 0 2 3 5 6 7 9 10 11 12 16 22 25 27 28 28 30 30 29 27 24 22 22 23 22 20 20
0 0 0 0 0 0 0 0 0 0 0 0 0 0 1 2 1 1 2 4 5 5 7 10 12 14 14 14 18 23 28 32 31 29 29 30 30 27 25 25 25 24 21 20
0 0 0 0 0 0 0 0 0 0 0 0 0 0 1 2 1 1 3 5 6 5 7 10 12 13 15 15 18 24 31 37 37 32 30 30 30 28 26 26 26 25 23 20
0 0 0 0 0 0 0 0 0 0 0 0 0 0 1 2 1 1 3 6 7 7 9 12 13 15 18 20 21 26 33 40 42 37 33 31 31 30 29 28 26 24 21 19
0 0 0 0 0 0 0 0 0 0 0 0 0 0 1 2 2 2 3 5 7 9 11 13 16 20 22 24 26 30 35 41 43 41 36 33 33 33 32 29 25 22 19 17
0 0 0 0 0 0 0 0 0 0 0 0 0 0 1 2 2 2 2 4 6 8 11 14 17 21 23 25 28 31 34 38 40 40 39 37 35 34 32 28 24 20 17 14
0 0 0 0 0 0 0 0 0 0 0 0 0 0 1 1 1 1 2 3 5 7 10 12 14 17 20 23 26 28 30 33 34 35 36 36 32 29 26 22 20 18 16 14
0 0 0 0 0 0 0 0 0 0 0 0 0 0 0 0 1 1 2 4 4 5 6 8 9 11 14 17 20 22 25 28 29 30 30 29 25 21 18 15 14 15 15 14
0 0 0 0 0 0 0 0 0 0 0 0 0 0 0 1 2 3 3 4 2 2 3 5 6 7 8 11 14 17 21 23 24 25 25 24 20 16 13 11 11 13 14 14
0 0 0 0 0 0 0 0 0 0 0 0 0 1 2 3 3 3 3 3 1 1 3 5 6 6 5 7 10 15 17 19 20 21 22 21 18 15 12 10 10 11 12 13
0 0 0 0 0 0 0 0 0 0 0 0 0 1 3 3 3 2 2 2 2 3 5 6 7 6 6 7 10 13 14 16 18 19 20 20 19 16 12 10 10 10 10 10
0 0 0 0 0 0 0 0 0 0 0 0 0 1 2 2 2 1 1 2 4 6 7 8 9 9 9 10 11 12 13 15 16 17 17 18 18 16 12 10 10 8 8 8
0 0 0 0 0 0 0 0 0 0 0 0 0 0 1 3 2 1 1 2 4 5 7 9 11 12 11 12 13 14 14 14 14 13 13 14 14 13 10 8 7 7 7 7
0 0 0 0 0 0 0 0 0 0 0 0 0 1 3 5 4 1 1 2 3 4 6 9 12 14 13 13 15 15 14 13 12 11 11 11 11 9 7 5 4 5 6 7
1 1 0 0 0 0 0 0 0 0 0 0 0 2 4 6 5 2 0 1 3 4 6 9 13 15 14 13 14 15 14 12 11 10 10 10 10 8 5 4 3 4 5 7
0 0 0 0 0 0 0 0 0 0 0 0 1 3 5 6 5 2 1 1 2 3 6 9 11 14 15 14 13 13 13 11 10 9 9 9 8 6 4 3 3 3 4 5
0 0 0 0 0 0 0 0 0 0 0 1 2 5 7 6 3 2 2 2 2 4 6 8 9 11 14 14 12 11 10 8 8 9 8 7 5 4 3 3 3 3 3 3
1 1 0 0 0 0 0 0 0 0 0 1 4 7 7 5 2 3 4 5 5 6 7 8 9 10 12 12 11 9 7 6 6 7 6 5 4 3 3 2 2 2 2 1
0 0 0 0 0 0 1 1 1 1 2 4 6 7 6 4 3 4 5 7 7 8 9 9 9 9 9 9 9 9 7 6 5 5 5 4 4 3 2 1 1 1 1 0
0 0 0 0 0 0 2 4 3 4 5 6 7 6 5 4 3 4 6 7 7 8 9 9 9 9 8 8 9 9 8 7 5 4 4 3 3 2 1 1 1 1 0 0
0 0 0 0 0 0 2 4 5 5 6 6 5 4 4 4 3 4 6 6 6 7 7 7 8 8 7 7 9 8 8 6 5 5 4 4 4 2 2 3 2 1 1 1
0 0 0 1 0 0 1 2 4 4 4 4 2 2 4 5 4 5 5 5 6 6 6 6 6 6 6 7 8 7 5 5 6 6 6 6 6 5 4 4 2 1 1 1
0 0 0 0 0 0 0 1 2 4 4 3 2 2 3 4 4 4 5 5 6 6 6 6 5 4 5 6 6 5 5 6 7 8 8 6 6 6 4 3 2 1 1 1
0 0 0 0 0 0 0 1 2 4 4 4 3 3 3 3 3 3 4 6 6 5 4 4 4 3 4 4 5 5 5 7 9 9 8 7 7 6 4 2 1 1 1 0
Wind_Speed
10 12 12 11 12 13 12 13 13 9 5 9 12 12 9 8 9 8 8 8 8 8 8 8 8 8 9 9 10 10 9 9 8 6 6 6 5 5 4 4 5 6 6 6
10 15 13 11 10 12 14 14 13 8 4 8 11 12 10 9 9 8 7 7 7 7 8 8 9 9 10 10 10 10 10 9 9 7 5 4 4 4 4 4 4 6 6 6
16 8 6 10 11 12 14 13 12 10 8 10 11 12 10 8 8 7 7 7 7 7 8 8 9 10 10 10 10 9 10 10 9 8 6 5 4 4 5 5 5 5 6 7
13 10 9 11 12 13 13 9 11 11 11 9 8 11 7 7 8 8 7 7 7 7 8 8 9 9 9 9 10 10 10 9 9 9 8 8 6 5 5 4 4 5 7 7
11 10 12 13 12 11 11 8 10 11 12 12 10 11 7 6 7 7 7 6 6 6 7 8 8 8 8 8 9 9 9 9 9 9 9 8 7 5 4 4 4 5 5 6
14 10 10 11 9 10 9 9 10 11 11 13 9 11 8 4 5 4 5 5 5 6 6 7 7 7 7 7 7 8 9 9 9 10 9 9 8 6 5 5 5 5 5 5
13 13 12 11 12 10 11 10 8 9 10 10 6 10 6 2 3 4 4 4 4 5 5 6 6 7 6 6 7 7 8 8 9 10 10 9 9 8 8 7 6 5 5 5
11 11 10 10 12 9 11 13 10 9 9 8 6 8 3 1 1 2 3 3 3 5 5 5 5 5 6 6 6 7 8 8 9 9 9 8 9 7 6 6 5 5 4 4
8 8 6 8 9 12 11 12 10 12 13 12 8 7 4 2 2 3 3 3 3 4 5 5 4 4 4 5 5 6 7 7 8 8 7 7 7 6 5 5 5 4 3 3
9 10 9 7 9 12 12 9 8 11 11 12 10 9 3 2 2 2 2 2 2 3 4 4 4 3 3 3 4 5 6 6 6 6 6 5 6 6 5 5 5 4 4 3
10 10 10 9 11 11 11 12 11 10 10 11 11 5 2 2 2 2 2 0 1 2 3 3 3 3 3 3 4 4 4 5 5 5 5 4 5 5 5 5 5 4 4 4
8 9 11 12 9 9 11 12 12 11 11 11 11 6 4 3 2 1 1 0 1 2 2 3 3 3 3 3 4 4 4 5 5 5 5 5 4 5 5 5 4 4 4 4
5 8 11 11 10 10 11 11 11 11 10 11 12 6 4 2 1 1 1 0 1 2 2 2 2 2 3 3 3 4 4 4 4 4 5 5 5 5 5 4 4 5 5 5
7 10 13 13 9 7 10 11 11 13 11 12 13 9 2 2 2 2 1 0 1 1 2 2 2 2 2 2 2 3 3 3 4 4 4 4 4 4 4 4 4 5 5 5
7 12 13 14 13 11 11 11 12 14 13 14 11 9 5 3 3 2 1 0 1 1 1 1 1 1 2 2 2 2 3 3 3 4 4 4 4 4 4 4 4 4 4 5
6 9 11 13 13 12 12 12 12 12 12 13 12 9 4 3 2 2 1 1 1 1 1 1 1 2 2 2 2 3 3 3 3 4 4 4 4 4 4 4 4 4 4 5
7 8 10 11 9 12 13 10 10 10 10 10 11 6 2 2 2 2 1 0 0 1 1 0 1 1 1 2 2 2 3 3 4 4 4 4 4 4 4 4 4 4 4 4
10 10 8 9 9 13 4 4 7 9 7 7 6 3 2 2 3 2 1 1 1 1 1 0 1 1 1 2 2 2 3 4 4 4 3 3 3 3 3 3 4 4 3 4
9 9 8 8 11 9 4 3 5 8 7 4 4 3 2 1 2 1 2 2 1 1 1 0 0 1 1 1 2 2 3 3 3 3 3 3 3 3 3 4 4 4 4 4
8 9 9 9 11 9 2 1 3 7 7 1 3 3 2 3 4 0 2 2 1 1 1 0 1 1 1 1 2 2 3 3 3 3 3 3 3 3 3 3 4 4 4 5
6 7 10 10 10 5 4 2 3 7 3 2 2 3 4 4 4 2 1 2 1 1 0 0 1 1 1 2 2 2 2 2 2 2 2 2 3 3 4 3 3 4 4 4
5 5 7 8 9 3 5 1 2 3 3 2 2 3 3 2 1 1 1 1 1 1 1 1 1 1 1 1 2 1 1 1 1 1 2 2 2 3 2 3 3 3 3 4
3 4 4 4 3 3 3 4 3 3 3 3 2 2 2 2 1 1 1 0 0 1 1 1 1 1 1 1 1 1 0 1 1 1 2 2 2 2 2 2 2 2 2 3
2 4 4 3 2 2 3 3 3 4 4 4 3 2 2 2 1 1 0 1 0 1 1 0 1 1 1 0 0 0 0 0 1 1 2 2 2 2 1 2 2 2 2 2
5 4 4 4 3 3 2 4 5 5 4 3 2 2 2 2 2 1 1 0 0 0 0 0 0 0 0 0 0 1 1 1 1 1 2 2 2 1 2 2 2 3 2 2
5 5 5 4 4 4 4 5 6 5 5 4 3 1 1 1 1 1 0 0 0 0 0 0 1 1 0 0 0 1 0 1 1 1 2 2 2 1 2 2 1 1 2 2
Wind_Direction
200 225 230 235 242 264 275 274 274 280 287 270 268 270 266 254 248 241 230 221 219 220 208 197 196 195 190 189 188 190 191 185 189 191 196 195 198 199 200 203 195 204 211 208
213 231 240 250 250 255 260 264 269 275 267 272 275 272 262 249 245 244 239 231 226 218 203 197 197 197 196 192 191 192 193 188 195 192 197 198 199 202 202 209 198 210 215 217
232 242 232 243 242 246 252 260 271 280 280 251 268 261 238 233 242 237 238 235 226 217 209 201 200 199 199 196 193 194 194 191 196 190 190 184 190 202 197 204 202 210 215 218
240 243 238 242 243 245 253 258 268 272 269 265 255 278 252 230 235 229 230 228 225 212 209 203 199 199 199 196 192 193 193 193 192 192 198 195 200 206 207 207 200 202 210 218
236 232 237 242 244 245 259 272 265 263 261 267 249 265 266 230 243 231 225 227 224 210 206 200 198 198 196 193 191 190 191 194 192 197 199 202 209 211 204 202 198 209 205 215
249 242 244 247 248 243 250 254 251 247 250 252 252 261 270 246 257 249 223 221 214 206 196 194 192 190 190 189 191 191 191 194 192 196 200 204 209 210 207 206 200 206 205 211
235 231 227 236 242 223 229 243 245 239 236 250 243 255 268 288 284 264 240 207 196 192 188 184 187 188 188 189 190 191 188 192 194 196 201 203 207 208 209 210 206 212 213 213
240 235 212 218 234 240 230 238 251 266 267 270 239 254 268 189 257 268 237 204 180 181 185 183 186 190 192 191 190 191 191 194 194 195 199 202 206 211 210 210 215 215 222 222
254 250 207 215 229 240 231 236 257 267 269 269 254 249 224 200 233 237 222 193 177 180 183 182 181 188 193 194 193 193 194 194 194 193 192 195 201 210 208 201 214 215 217 217
262 262 243 219 227 227 247 248 241 250 262 268 266 256 259 228 262 243 229 215 181 182 182 176 178 186 192 195 191 191 192 196 194 192 192 189 194 201 205 207 207 211 213 211
250 255 248 228 229 235 223 231 240 252 257 267 274 272 30 335 325 295 290 276 173 175 172 170 177 184 178 178 182 181 188 191 190 188 184 188 195 197 201 205 206 205 208 207
237 256 258 249 242 247 242 238 235 245 251 252 270 276 76 50 8 314 306 47 125 161 174 170 175 174 175 180 182 180 185 190 189 182 183 191 195 196 200 202 203 202 207 213
238 248 252 239 216 214 234 234 238 245 256 256 260 256 99 72 21 341 323 54 149 172 177 170 172 180 186 185 187 185 188 185 180 182 184 189 196 199 206 208 204 209 214 219
244 247 254 260 266 251 243 240 237 241 248 257 260 273 286 333 321 321 326 302 192 182 168 179 177 173 180 183 191 195 191 183 180 182 185 190 200 207 211 216 212 215 220 225
241 249 254 262 265 259 253 250 242 241 250 260 268 274 289 307 312 302 297 172 187 194 184 181 177 164 174 184 190 195 185 181 187 189 190 193 199 204 210 222 221 224 230 234
250 260 261 258 251 246 248 251 245 243 250 257 263 265 300 314 309 292 294 160 189 260 268 213 179 162 175 187 188 183 180 188 198 199 193 188 194 200 208 222 228 230 233 239
251 253 258 258 252 247 241 245 243 241 246 253 258 269 296 300 303 292 288 236 337 338 351 340 184 175 177 182 185 188 177 186 198 199 199 195 199 204 216 225 227 232 236 239
248 253 255 260 253 244 235 239 243 243 248 260 265 281 287 296 305 287 326 349 351 340 344 298 193 178 172 173 176 188 182 185 196 197 200 201 208 222 229 236 239 238 238 242
232 240 250 253 249 240 219 241 240 244 240 247 260 266 280 304 269 176 39 5 347 341 2 355 200 202 189 184 183 186 191 192 202 205 213 216 222 233 237 238 242 241 240 243
205 224 243 248 257 252 253 295 264 237 230 210 252 251 248 254 263 339 20 343 346 14 31 118 164 167 169 183 193 195 199 202 212 215 217 220 230 237 240 243 242 239 243 246
213 223 236 247 254 256 360 349 245 234 270 326 277 258 255 269 301 334 313 324 343 27 50 162 162 158 174 184 191 205 210 220 230 227 227 234 241 246 243 241 240 244 248 254
249 241 237 245 249 251 18 330 254 316 340 312 291 276 274 297 326 291 295 346 39 73 90 126 136 127 138 175 194 206 230 267 243 231 239 256 266 273 254 248 248 251 259 252
277 304 292 287 300 20 2 335 337 324 309 310 300 302 271 255 227 257 298 352 358 106 105 118 134 122 117 172 209 242 289 291 254 244 264 275 277 274 270 266 267 258 251 267
285 309 280 274 277 337 340 350 359 352 336 315 301 289 255 240 232 230 202 124 138 157 146 161 160 122 92 71 325 313 298 264 261 258 268 263 253 257 261 268 268 275 278 280
304 290 267 258 279 301 322 345 344 340 336 330 308 265 233 213 198 205 197 166 193 150 135 140 119 122 92 82 56 34 15 337 286 267 265 262 251 250 259 268 289 279 290 298
282 285 281 286 310 304 315 332 338 339 343 338 322 301 276 212 182 189 145 145 137 115 77 39 356 327 329 118 93 70 7 291 264 256 275 283 283 274 272 279 266 225 250 219